P43P Weather Reports


Display with metric or nautical units.
time (UTC)temp
F
wind
direction
speed
MPH
gust
MPH
rain 1hr
in
rain 24hr
in
rain mn
in
humidity
%
barometer
mb
20260507142914 85 107 25.0 35.0 0.00 0.00 0.00 75 1013.5
20260507142410 85 85 27.0 40.0 0.00 0.00 0.00 75 1013.5
20260507141907 85 130 23.0 40.0 0.00 0.00 0.00 75 1013.4
20260507141403 85 130 28.0 43.0 0.00 0.00 0.00 75 1013.2
20260507140900 85 137 27.0 45.0 0.00 0.00 0.00 75 1013.3
20260507140357 85 109 23.0 38.0 0.00 0.00 0.00 75 1013.3
20260507135855 85 90 20.0 38.0 0.00 0.00 0.00 75 1013.0
20260507135351 85 100 23.0 48.0 0.00 0.00 0.00 75 1013.5
20260507134849 85 97 26.0 38.0 0.00 0.00 0.00 76 1013.5
20260507134345 85 130 24.0 43.0 0.00 0.00 0.00 75 1013.3
20260507133841 86 97 31.0 38.0 0.00 0.00 0.00 74 1013.3
20260507133336 86 106 34.0 43.0 0.00 0.00 0.00 74 1013.2
20260507132835 85 100 22.0 43.0 0.00 0.00 0.00 76 1013.2
20260507132331 85 82 28.0 40.0 0.00 0.00 0.00 76 1013.0
20260507131829 85 145 27.0 40.0 0.00 0.00 0.00 76 1013.2
20260507131325 85 138 27.0 45.0 0.00 0.00 0.00 76 1013.2
20260507130822 85 99 21.0 33.0 0.00 0.00 0.00 77 1013.0
20260507130319 85 126 25.0 45.0 0.00 0.00 0.00 76 1013.0
20260507125818 85 127 17.0 40.0 0.00 0.00 0.00 77 1013.2
20260507125315 84 121 26.0 40.0 0.00 0.00 0.00 77 1013.1
20260507124812 84 117 25.0 43.0 0.00 0.00 0.00 77 1013.1
20260507124308 84 118 28.0 35.0 0.00 0.00 0.00 78 1013.0
20260507123807 84 111 30.0 43.0 0.00 0.00 0.00 78 1013.0
20260507123304 84 104 26.0 40.0 0.00 0.00 0.00 78 1013.0
20260507122800 84 109 31.0 43.0 0.00 0.00 0.00 78 1012.9
20260507122255 84 143 24.0 38.0 0.00 0.00 0.00 78 1012.9
20260507121752 83 104 23.0 30.0 0.00 0.00 0.00 79 1012.8
20260507121248 83 111 24.0 43.0 0.00 0.00 0.00 79 1012.9
20260507120744 83 112 21.0 45.0 0.00 0.00 0.00 80 1012.7
20260507120241 83 110 20.0 35.0 0.00 0.00 0.00 80 1012.7
20260507115737 83 126 17.0 35.0 0.00 0.00 0.00 80 1012.8
20260507115233 82 131 21.0 40.0 0.00 0.00 0.00 80 1012.7
20260507114728 82 112 24.0 35.0 0.00 0.00 0.00 80 1012.6
20260507114226 82 124 26.0 33.0 0.00 0.00 0.00 81 1012.6
20260507113724 82 136 23.0 30.0 0.00 0.00 0.00 81 1012.6
20260507113220 82 115 20.0 38.0 0.00 0.00 0.00 81 1012.7
20260507112718 82 98 23.0 33.0 0.00 0.00 0.00 81 1012.4
20260507112215 82 117 26.0 38.0 0.00 0.00 0.00 81 1012.5
20260507111712 82 131 23.0 35.0 0.00 0.00 0.00 82 1012.5
20260507111209 82 107 23.0 38.0 0.00 0.00 0.00 82 1012.2
20260507110705 82 133 25.0 33.0 0.00 0.00 0.00 82 1012.3
20260507110202 82 114 23.0 40.0 0.00 0.00 0.00 82 1012.1
20260507105659 81 123 23.0 33.0 0.00 0.00 0.00 82 1012.1
20260507105154 81 111 20.0 30.0 0.00 0.00 0.00 82 1012.0
20260507104652 81 104 17.0 28.0 0.00 0.00 0.00 82 1012.2
20260507104148 81 76 12.0 23.0 0.00 0.00 0.00 82 1011.9
20260507103644 81 129 29.0 40.0 0.00 0.00 0.00 82 1011.9
20260507103141 81 119 23.0 35.0 0.00 0.00 0.00 82 1011.9
20260507102638 81 149 17.0 40.0 0.00 0.00 0.00 82 1011.9
20260507102134 81 126 33.0 40.0 0.00 0.00 0.00 82 1012.0
20260507101630 81 117 14.0 17.0 0.00 0.00 0.00 82 1011.8
20260507101126 81 129 20.0 28.0 0.00 0.00 0.00 81 1011.9
20260507100623 81 157 29.0 33.0 0.00 0.00 0.00 81 1011.9
20260507100121 81 159 23.0 43.0 0.00 0.00 0.00 81 1011.6
20260507095619 81 99 23.0 38.0 0.00 0.00 0.00 81 1011.6
20260507095115 81 120 18.0 35.0 0.00 0.00 0.00 81 1011.5
20260507094611 81 115 28.0 40.0 0.00 0.00 0.00 81 1011.5
20260507094109 81 126 23.0 30.0 0.00 0.00 0.00 81 1011.5
20260507093606 81 105 22.0 40.0 0.00 0.00 0.00 81 1011.5
20260507093105 81 98 21.0 33.0 0.00 0.00 0.00 81 1011.6
20260507092601 81 143 26.0 35.0 0.00 0.00 0.00 81 1011.6
20260507092057 81 129 20.0 33.0 0.00 0.00 0.00 81 1011.4
20260507091554 81 120 32.0 40.0 0.00 0.00 0.00 81 1011.5
20260507091050 81 108 20.0 43.0 0.00 0.00 0.00 81 1011.4
20260507090546 81 124 19.0 28.0 0.00 0.00 0.00 81 1011.2
20260507090043 81 103 28.0 40.0 0.00 0.00 0.00 81 1011.1
20260507085540 81 130 19.0 33.0 0.00 0.00 0.00 81 1011.3
20260507085037 81 99 22.0 35.0 0.00 0.00 0.00 81 1011.3
20260507084533 81 110 22.0 43.0 0.00 0.00 0.00 81 1011.0
20260507084031 81 131 19.0 40.0 0.00 0.00 0.00 81 1011.1
20260507083527 81 130 23.0 35.0 0.00 0.00 0.00 81 1011.0
20260507083024 81 134 23.0 35.0 0.00 0.00 0.00 81 1011.1
20260507082520 81 123 20.0 33.0 0.00 0.00 0.00 81 1011.2
20260507082016 81 131 22.0 40.0 0.00 0.00 0.00 81 1011.1
20260507081513 81 109 19.0 35.0 0.00 0.00 0.00 81 1011.1
20260507081010 81 114 24.0 33.0 0.00 0.00 0.00 81 1011.1
20260507080506 81 109 25.0 38.0 0.00 0.00 0.00 81 1011.3
20260507080001 81 124 17.0 33.0 0.00 0.00 0.00 81 1011.1
20260507075458 81 118 19.0 33.0 0.00 0.00 0.00 81 1011.0
20260507074954 81 82 25.0 30.0 0.00 0.00 0.00 81 1011.0
20260507074451 81 129 31.0 43.0 0.00 0.00 0.00 81 1011.0
20260507073949 81 136 25.0 40.0 0.00 0.00 0.00 81 1011.0
20260507073445 81 119 23.0 38.0 0.00 0.00 0.00 81 1011.0
20260507072942 81 83 22.0 38.0 0.00 0.00 0.00 82 1010.9
20260507072439 81 77 25.0 35.0 0.00 0.00 0.00 82 1011.0
20260507071937 81 112 20.0 30.0 0.00 0.00 0.00 82 1011.1
20260507071434 81 128 23.0 30.0 0.00 0.00 0.00 82 1011.1
20260507070930 81 109 22.0 33.0 0.00 0.00 0.00 82 1011.0
20260507070428 81 117 28.0 38.0 0.00 0.00 0.00 82 1010.9
20260507065924 81 129 20.0 35.0 0.00 0.00 0.00 82 1011.0
20260507065421 81 97 17.0 43.0 0.00 0.00 0.00 82 1011.1
20260507064918 81 111 27.0 40.0 0.00 0.00 0.00 82 1011.2
20260507064416 81 95 23.0 38.0 0.00 0.00 0.00 82 1011.3
20260507063914 81 100 25.0 38.0 0.00 0.00 0.00 82 1011.2
20260507063411 81 120 17.0 25.0 0.00 0.00 0.00 83 1011.3
20260507062908 81 120 25.0 38.0 0.00 0.00 0.00 83 1011.3
20260507062405 81 129 29.0 38.0 0.00 0.00 0.00 83 1011.2
20260507061902 81 88 23.0 40.0 0.00 0.00 0.00 83 1011.5
20260507061400 81 117 22.0 28.0 0.00 0.00 0.00 83 1011.2
20260507060859 81 110 28.0 35.0 0.00 0.00 0.00 83 1011.3
20260507060355 81 129 21.0 33.0 0.00 0.00 0.00 83 1011.3
20260507055852 81 143 35.0 45.0 0.00 0.00 0.00 83 1011.5
20260507055346 81 123 28.0 45.0 0.00 0.00 0.00 82 1011.5
20260507054844 81 75 23.0 40.0 0.00 0.00 0.00 83 1011.7
20260507054340 81 112 27.0 43.0 0.00 0.00 0.00 82 1011.6
20260507053837 81 129 30.0 35.0 0.00 0.00 0.00 82 1011.6
20260507053335 81 99 20.0 38.0 0.00 0.00 0.00 82 1011.7
20260507052833 81 110 23.0 35.0 0.00 0.00 0.00 82 1011.9
20260507052330 81 152 26.0 40.0 0.00 0.00 0.00 82 1012.0
20260507051828 81 116 30.0 43.0 0.00 0.00 0.00 82 1012.1
20260507051325 81 105 28.0 40.0 0.00 0.00 0.00 82 1012.0
20260507050822 81 170 21.0 30.0 0.00 0.00 0.00 83 1012.2
20260507050318 81 122 27.0 33.0 0.00 0.00 0.00 83 1012.3
20260507045815 81 99 27.0 43.0 0.00 0.00 0.00 83 1012.0
20260507045312 81 119 19.0 35.0 0.00 0.00 0.00 82 1012.4
20260507044809 81 112 31.0 43.0 0.00 0.00 0.00 82 1012.2
20260507044305 81 116 24.0 33.0 0.00 0.00 0.00 82 1012.3
20260507043801 81 103 26.0 43.0 0.00 0.00 0.00 82 1012.2
20260507043258 81 121 28.0 35.0 0.00 0.00 0.00 83 1012.4
20260507042754 81 115 29.0 40.0 0.00 0.00 0.00 82 1012.5
20260507042249 81 110 22.0 38.0 0.00 0.00 0.00 82 1012.6
20260507041747 81 99 22.0 30.0 0.00 0.00 0.00 82 1012.6
20260507041244 81 162 21.0 38.0 0.00 0.00 0.00 82 1012.8
20260507040741 81 121 29.0 33.0 0.00 0.00 0.00 82 1012.8
20260507040237 81 140 17.0 33.0 0.00 0.00 0.00 82 1012.7
20260507035733 81 114 28.0 45.0 0.00 0.00 0.00 82 1012.7
20260507035228 81 126 27.0 40.0 0.00 0.00 0.00 82 1012.7
20260507034726 81 131 24.0 40.0 0.00 0.00 0.00 82 1012.8
20260507034223 81 112 21.0 30.0 0.00 0.00 0.00 82 1012.7
20260507033721 81 124 19.0 40.0 0.00 0.00 0.00 82 1013.0
20260507033218 81 92 21.0 40.0 0.00 0.00 0.00 82 1013.1
20260507032716 81 107 25.0 43.0 0.00 0.00 0.00 82 1013.0
20260507032211 81 98 25.0 40.0 0.00 0.00 0.00 82 1013.0
20260507031708 81 132 38.0 40.0 0.00 0.00 0.00 83 1013.0
20260507031205 82 102 29.0 38.0 0.00 0.00 0.00 82 1013.0
20260507030702 82 147 24.0 35.0 0.00 0.00 0.00 83 1013.2
20260507030159 82 104 23.0 33.0 0.00 0.00 0.00 82 1013.0
20260507025657 82 121 23.0 35.0 0.00 0.00 0.00 82 1013.0
20260507025153 81 129 21.0 30.0 0.00 0.00 0.00 83 1013.1
20260507024652 82 115 16.0 33.0 0.00 0.00 0.00 82 1013.0
20260507024148 82 93 20.0 45.0 0.00 0.00 0.00 82 1013.1
20260507023644 82 162 29.0 38.0 0.00 0.00 0.00 82 1012.9
20260507023141 82 108 22.0 38.0 0.00 0.00 0.00 82 1012.9
20260507022638 81 107 34.0 45.0 0.00 0.00 0.00 82 1012.8
20260507022134 81 147 24.0 48.0 0.00 0.00 0.00 82 1012.8
20260507021631 82 111 24.0 38.0 0.00 0.00 0.00 82 1012.8
20260507021126 81 116 21.0 48.0 0.00 0.00 0.00 82 1012.7
20260507020625 81 129 25.0 40.0 0.00 0.00 0.00 82 1012.8
20260507020120 82 122 21.0 35.0 0.00 0.00 0.00 82 1012.8
20260507015619 82 99 33.0 40.0 0.00 0.00 0.00 82 1012.6
20260507015116 82 118 25.0 43.0 0.00 0.00 0.00 82 1012.6
20260507014613 82 123 21.0 35.0 0.00 0.00 0.00 82 1012.4
20260507014108 82 96 23.0 45.0 0.00 0.00 0.00 82 1012.2
20260507013605 82 113 23.0 38.0 0.00 0.00 0.00 82 1012.0
20260507013102 82 129 28.0 40.0 0.00 0.00 0.00 82 1012.2
20260507012600 82 110 22.0 43.0 0.00 0.00 0.00 82 1012.1
20260507012055 82 117 27.0 43.0 0.00 0.00 0.00 82 1012.0
20260507011553 82 114 30.0 40.0 0.00 0.00 0.00 82 1012.1
20260507011049 82 173 27.0 43.0 0.00 0.00 0.00 82 1011.9
20260507010544 82 112 21.0 43.0 0.00 0.00 0.00 82 1012.0
20260507010040 82 110 33.0 43.0 0.00 0.00 0.00 82 1011.9
20260507005538 82 87 23.0 33.0 0.00 0.00 0.00 82 1011.8
20260507005034 82 120 25.0 33.0 0.00 0.00 0.00 82 1011.4
20260507004531 82 117 24.0 38.0 0.00 0.00 0.00 82 1011.7
20260507004029 82 124 26.0 38.0 0.00 0.00 0.00 82 1011.6
20260507003524 82 133 25.0 35.0 0.00 0.00 0.00 82 1011.5
20260507003019 82 129 26.0 33.0 0.00 0.00 0.00 82 1011.5
20260507002516 82 122 14.0 23.0 0.00 0.00 0.00 81 1011.6
20260507002013 82 104 26.0 38.0 0.00 0.00 0.00 81 1011.6
20260507001509 82 135 21.0 28.0 0.00 0.00 0.00 81 1011.4
20260507001007 82 110 27.0 33.0 0.00 0.00 0.00 81 1011.5
20260507000502 82 102 22.0 30.0 0.00 0.00 0.00 81 1011.5
20260506235957 82 99 19.0 28.0 0.00 0.00 0.00 81 1011.5
20260506235455 82 73 16.0 28.0 0.00 0.00 0.00 81 1011.6
20260506234951 82 89 19.0 35.0 0.00 0.00 0.00 81 1011.5
20260506234449 82 103 21.0 35.0 0.00 0.00 0.00 81 1011.3
20260506233946 82 112 18.0 28.0 0.00 0.00 0.00 81 1011.2
20260506233443 82 100 15.0 30.0 0.00 0.00 0.00 81 1011.1
20260506232939 82 122 14.0 38.0 0.00 0.00 0.00 81 1011.2
20260506232435 82 122 29.0 33.0 0.00 0.00 0.00 81 1011.0
20260506231931 82 99 23.0 35.0 0.00 0.00 0.00 81 1011.2
20260506231429 82 112 20.0 43.0 0.00 0.00 0.00 80 1011.1
20260506230926 82 117 16.0 28.0 0.00 0.00 0.00 80 1011.1
20260506230422 82 115 20.0 25.0 0.00 0.00 0.00 80 1011.0
20260506225919 82 116 23.0 35.0 0.00 0.00 0.00 80 1010.8
20260506225416 82 105 20.0 35.0 0.00 0.00 0.00 80 1010.6
20260506224913 83 129 24.0 33.0 0.00 0.00 0.00 80 1010.9
20260506224411 83 102 20.0 45.0 0.00 0.00 0.00 80 1010.8
20260506223906 83 95 17.0 35.0 0.00 0.00 0.00 79 1010.7
20260506223402 83 128 25.0 38.0 0.00 0.00 0.00 79 1010.7
20260506222859 83 84 19.0 48.0 0.00 0.00 0.00 78 1010.6
20260506222355 83 103 24.0 30.0 0.00 0.00 0.00 78 1010.6
20260506221853 83 118 28.0 40.0 0.00 0.00 0.00 78 1010.4
20260506221350 83 74 25.0 40.0 0.00 0.00 0.00 77 1010.5
20260506220848 84 110 25.0 33.0 0.00 0.00 0.00 77 1010.5
20260506220343 84 88 19.0 33.0 0.00 0.00 0.00 77 1010.5
20260506215840 84 97 19.0 43.0 0.00 0.00 0.00 77 1010.6
20260506215336 84 138 27.0 40.0 0.00 0.00 0.00 76 1010.5
20260506214832 85 109 22.0 40.0 0.00 0.00 0.00 76 1010.4
20260506214329 85 69 13.0 30.0 0.00 0.00 0.00 76 1010.5
20260506213827 85 105 13.0 38.0 0.00 0.00 0.00 76 1010.5
20260506213324 85 132 25.0 38.0 0.00 0.00 0.00 75 1010.5
20260506212821 85 77 17.0 28.0 0.00 0.00 0.00 75 1010.4
20260506212317 85 117 28.0 40.0 0.00 0.00 0.00 75 1010.4
20260506211812 86 73 12.0 33.0 0.00 0.00 0.00 75 1010.4
20260506211308 86 119 23.0 33.0 0.00 0.00 0.00 73 1010.4
20260506210806 86 103 15.0 33.0 0.00 0.00 0.00 73 1010.4
20260506210303 86 80 25.0 30.0 0.00 0.00 0.00 73 1010.4
20260506205800 87 96 15.0 35.0 0.00 0.00 0.00 72 1010.4
20260506205255 87 132 15.0 25.0 0.00 0.00 0.00 73 1010.5
20260506204752 87 101 17.0 33.0 0.00 0.00 0.00 73 1010.5
20260506204250 87 129 20.0 25.0 0.00 0.00 0.00 73 1010.7
20260506203748 87 113 20.0 30.0 0.00 0.00 0.00 72 1010.7
20260506203245 87 93 23.0 40.0 0.00 0.00 0.00 72 1010.6
20260506202742 87 145 17.0 25.0 0.00 0.00 0.00 72 1010.7
20260506202238 87 113 21.0 33.0 0.00 0.00 0.00 73 1010.6
20260506201735 87 126 25.0 48.0 0.00 0.00 0.00 72 1010.8
20260506201232 88 118 23.0 30.0 0.00 0.00 0.00 71 1011.0
20260506200729 87 112 17.0 33.0 0.00 0.00 0.00 72 1010.7
20260506200226 87 115 24.0 33.0 0.00 0.00 0.00 73 1010.8
20260506195722 86 115 16.0 38.0 0.00 0.00 0.00 74 1011.2
20260506195218 86 132 24.0 38.0 0.00 0.00 0.00 73 1011.0
20260506194715 86 122 18.0 40.0 0.00 0.00 0.00 74 1011.2
20260506194212 87 115 20.0 45.0 0.00 0.00 0.00 74 1010.9
20260506193710 87 108 11.0 28.0 0.00 0.00 0.00 73 1011.1
20260506193207 87 103 25.0 35.0 0.00 0.00 0.00 74 1011.1
20260506192703 86 121 17.0 43.0 0.00 0.00 0.00 74 1011.1
20260506192200 86 108 23.0 50.0 0.00 0.00 0.00 74 1011.0
20260506191657 87 133 24.0 35.0 0.00 0.00 0.00 73 1011.1
20260506191153 86 103 31.0 45.0 0.00 0.00 0.00 74 1011.1
20260506190650 86 121 26.0 40.0 0.00 0.00 0.00 74 1011.0
20260506190147 86 134 27.0 45.0 0.00 0.00 0.00 74 1011.3
20260506185644 87 97 26.0 38.0 0.00 0.00 0.00 74 1011.3
20260506185140 87 111 24.0 30.0 0.00 0.00 0.00 74 1011.1
20260506184638 87 110 27.0 38.0 0.00 0.00 0.00 73 1011.4
20260506184135 87 94 22.0 40.0 0.00 0.00 0.00 74 1011.4
20260506183631 87 104 23.0 45.0 0.00 0.00 0.00 73 1011.6
20260506183127 87 139 32.0 43.0 0.00 0.00 0.00 74 1011.7
20260506182625 87 136 30.0 38.0 0.00 0.00 0.00 74 1011.6
20260506182122 87 80 28.0 48.0 0.00 0.00 0.00 74 1011.8
20260506181620 87 132 24.0 43.0 0.00 0.00 0.00 74 1011.7
20260506181117 87 118 31.0 48.0 0.00 0.00 0.00 73 1011.9
20260506180614 87 123 30.0 43.0 0.00 0.00 0.00 72 1012.0
20260506180110 87 107 24.0 48.0 0.00 0.00 0.00 73 1012.1
20260506175606 87 132 28.0 43.0 0.00 0.00 0.00 73 1012.2
20260506175102 87 123 28.0 38.0 0.00 0.00 0.00 73 1012.3
20260506174601 87 123 28.0 33.0 0.00 0.00 0.00 72 1012.3
20260506174057 87 111 16.0 30.0 0.00 0.00 0.00 73 1012.5
20260506173555 88 139 29.0 43.0 0.00 0.00 0.00 72 1012.6
20260506173052 88 133 17.0 25.0 0.00 0.00 0.00 72 1012.7
20260506172549 87 111 15.0 33.0 0.00 0.00 0.00 74 1012.7
20260506172045 88 123 21.0 25.0 0.00 0.00 0.00 72 1012.9
20260506171543 88 142 24.0 35.0 0.00 0.00 0.00 72 1013.0
20260506171041 88 102 22.0 30.0 0.00 0.00 0.00 72 1013.2
20260506170538 87 125 24.0 45.0 0.00 0.00 0.00 73 1013.2
20260506170035 88 124 20.0 33.0 0.00 0.00 0.00 72 1013.3
20260506165533 87 157 25.0 43.0 0.00 0.00 0.00 73 1013.5
20260506165029 87 96 23.0 28.0 0.00 0.00 0.00 73 1013.3
20260506164526 87 104 25.0 35.0 0.00 0.00 0.00 72 1013.5
20260506164023 87 127 18.0 38.0 0.00 0.00 0.00 73 1013.5
20260506163520 87 110 19.0 35.0 0.00 0.00 0.00 73 1013.7
20260506163015 87 117 22.0 33.0 0.00 0.00 0.00 73 1013.7
20260506162512 86 109 20.0 30.0 0.00 0.00 0.00 74 1013.7
20260506162009 86 121 28.0 40.0 0.00 0.00 0.00 73 1013.7
20260506161507 87 98 26.0 35.0 0.00 0.00 0.00 73 1013.8
20260506161003 87 109 20.0 35.0 0.00 0.00 0.00 73 1013.6
20260506160501 87 124 27.0 35.0 0.00 0.00 0.00 73 1013.7
20260506155958 87 100 21.0 38.0 0.00 0.00 0.00 73 1013.7
20260506155457 87 113 28.0 40.0 0.00 0.00 0.00 73 1013.8
20260506153628 87 91 32.0 43.0 0.00 0.00 0.00 73 1013.7
20260506153125 86 118 23.0 35.0 0.00 0.00 0.00 74 1013.6
20260506152622 86 119 32.0 43.0 0.00 0.00 0.00 73 1013.8
20260506152120 86 110 26.0 35.0 0.00 0.00 0.00 73 1013.8
20260506151618 86 125 21.0 40.0 0.00 0.00 0.00 74 1013.7
20260506151115 86 149 31.0 38.0 0.00 0.00 0.00 73 1013.5
20260506150612 87 118 31.0 40.0 0.00 0.00 0.00 73 1013.7
20260506150108 86 162 21.0 35.0 0.00 0.00 0.00 74 1013.8
20260506145605 86 123 23.0 40.0 0.00 0.00 0.00 75 1013.7
20260506145102 85 133 28.0 40.0 0.00 0.00 0.00 75 1013.6
20260506144559 86 134 31.0 45.0 0.00 0.00 0.00 74 1013.5
20260506144056 86 101 30.0 40.0 0.00 0.00 0.00 74 1013.7
20260506143554 86 160 26.0 38.0 0.00 0.00 0.00 75 1013.6